Wetterdaten: Donnerstag, 31.10.2013
Datum Zeit Temperatur Luftfeuchte Luftdruck Regen Wind Richtung Richtung Taupunkt Windchill Windben
31.10.2013 00:00 5,1 C 95 % 1025,8 hPa 0,0 l/m 2,6 km/h (1 Bft) N-NO 22 4,4 C 5,4 C 2,7 km/h (1 Bft)
31.10.2013 00:05 5,1 C 95 % 1025,9 hPa 0,0 l/m 2,6 km/h (1 Bft) NO 45 4,4 C 5,4 C 0,0 km/h (0 Bft)
31.10.2013 00:10 5,2 C 95 % 1025,9 hPa 0,0 l/m 2,1 km/h (1 Bft) N 360 4,5 C 5,4 C 2,4 km/h (1 Bft)
31.10.2013 00:15 5,1 C 95 % 1025,9 hPa 0,0 l/m 1,9 km/h (1 Bft) W-NW 292 4,4 C 5,4 C 4,5 km/h (1 Bft)
31.10.2013 00:20 5,0 C 95 % 1025,9 hPa 0,0 l/m 1,9 km/h (1 Bft) W-NW 292 4,3 C 5,4 C 4,5 km/h (1 Bft)
31.10.2013 00:25 5,0 C 95 % 1026,1 hPa 0,0 l/m 3,5 km/h (1 Bft) NW 315 4,3 C 5,1 C 5,5 km/h (1 Bft)
31.10.2013 00:30 5,0 C 95 % 1026,1 hPa 0,0 l/m 3,4 km/h (1 Bft) W-NW 292 4,3 C 5,1 C 2,7 km/h (1 Bft)
31.10.2013 00:35 4,9 C 95 % 1026,1 hPa 0,0 l/m 3,2 km/h (1 Bft) O 90 4,2 C 5,2 C 0,0 km/h (0 Bft)
31.10.2013 00:40 4,9 C 95 % 1026,1 hPa 0,0 l/m 2,9 km/h (1 Bft) O 90 4,2 C 5,2 C 2,3 km/h (1 Bft)
31.10.2013 00:45 4,9 C 95 % 1026,0 hPa 0,0 l/m 2,4 km/h (1 Bft) N 360 4,2 C 5,2 C 6,3 km/h (2 Bft)
31.10.2013 00:50 4,9 C 95 % 1026,0 hPa 0,0 l/m 1,8 km/h (1 Bft) W-NW 292 4,2 C 5,2 C 2,3 km/h (1 Bft)
31.10.2013 00:55 4,8 C 95 % 1026,0 hPa 0,0 l/m 1,4 km/h (1 Bft) NW 315 4,1 C 5,1 C 0,0 km/h (0 Bft)
31.10.2013 01:00 4,9 C 95 % 1026,0 hPa 0,0 l/m 2,3 km/h (1 Bft) N 360 4,2 C 5,1 C 3,2 km/h (1 Bft)
31.10.2013 01:05 4,8 C 95 % 1025,8 hPa 0,0 l/m 2,1 km/h (1 Bft) W-NW 292 4,1 C 5,1 C 2,4 km/h (1 Bft)
31.10.2013 01:10 4,8 C 95 % 1025,8 hPa 0,0 l/m 2,1 km/h (1 Bft) W-NW 292 4,1 C 5,1 C 2,4 km/h (1 Bft)
31.10.2013 01:15 4,6 C 95 % 1025,8 hPa 0,0 l/m 2,1 km/h (1 Bft) W-NW 292 3,9 C 5,1 C 2,4 km/h (1 Bft)
31.10.2013 01:20 4,6 C 95 % 1025,8 hPa 0,0 l/m 2,1 km/h (1 Bft) W-NW 292 3,9 C 5,1 C 2,4 km/h (1 Bft)
31.10.2013 01:25 4,7 C 95 % 1025,8 hPa 0,0 l/m 0,0 km/h (0 Bft) W-NW 292 4,0 C 5,1 C 0,0 km/h (0 Bft)
31.10.2013 01:30 4,7 C 95 % 1025,8 hPa 0,0 l/m 2,3 km/h (1 Bft) N-NW 337 4,0 C 5,0 C 2,3 km/h (1 Bft)
31.10.2013 01:35 4,5 C 95 % 1025,8 hPa 0,0 l/m 2,3 km/h (1 Bft) N-NW 337 3,8 C 5,0 C 2,3 km/h (1 Bft)
31.10.2013 01:40 4,6 C 95 % 1025,8 hPa 0,0 l/m 2,3 km/h (1 Bft) NW 315 3,9 C 4,8 C 0,0 km/h (0 Bft)
31.10.2013 01:45 4,6 C 95 % 1026,0 hPa 0,0 l/m 1,0 km/h (0 Bft) N 360 3,9 C 4,7 C 2,1 km/h (1 Bft)
31.10.2013 01:50 4,6 C 95 % 1026,0 hPa 0,0 l/m 1,4 km/h (1 Bft) N-NW 337 3,9 C 4,7 C 2,1 km/h (1 Bft)
31.10.2013 01:55 4,6 C 95 % 1026,0 hPa 0,0 l/m 1,9 km/h (1 Bft) NW 315 3,9 C 4,7 C 0,0 km/h (0 Bft)
31.10.2013 02:00 4,5 C 95 % 1026,0 hPa 0,0 l/m 1,8 km/h (1 Bft) N 360 3,8 C 4,8 C 2,4 km/h (1 Bft)
31.10.2013 02:05 4,5 C 95 % 1025,6 hPa 0,0 l/m 1,4 km/h (1 Bft) N-NW 337 3,8 C 4,7 C 1,6 km/h (1 Bft)
31.10.2013 02:10 4,5 C 95 % 1025,6 hPa 0,0 l/m 1,4 km/h (1 Bft) N-NW 337 3,8 C 4,7 C 1,6 km/h (1 Bft)
31.10.2013 02:15 4,6 C 95 % 1025,6 hPa 0,0 l/m 1,0 km/h (0 Bft) N 360 3,9 C 4,7 C 2,1 km/h (1 Bft)
31.10.2013 02:20 4,6 C 95 % 1025,6 hPa 0,0 l/m 1,0 km/h (0 Bft) N 360 3,9 C 4,7 C 2,1 km/h (1 Bft)
31.10.2013 02:25 4,5 C 96 % 1025,4 hPa 0,0 l/m 0,6 km/h (0 Bft) N-NO 22 3,9 C 4,7 C 3,1 km/h (1 Bft)
31.10.2013 02:30 4,5 C 96 % 1025,4 hPa 0,0 l/m 1,1 km/h (1 Bft) O 90 3,9 C 4,7 C 2,4 km/h (1 Bft)
31.10.2013 02:35 4,5 C 95 % 1025,4 hPa 0,0 l/m 0,3 km/h (0 Bft) N-NW 337 3,8 C 4,7 C 0,0 km/h (0 Bft)
31.10.2013 02:40 4,6 C 96 % 1025,4 hPa 0,0 l/m 0,2 km/h (0 Bft) N 360 4,0 C 4,7 C 0,0 km/h (0 Bft)
31.10.2013 02:45 4,6 C 96 % 1025,4 hPa 0,0 l/m 0,2 km/h (0 Bft) W 270 4,0 C 4,7 C 0,0 km/h (0 Bft)
31.10.2013 02:50 4,5 C 95 % 1025,4 hPa 0,0 l/m 0,0 km/h (0 Bft) W-NW 292 3,8 C 4,7 C 0,0 km/h (0 Bft)
31.10.2013 02:55 4,6 C 95 % 1025,4 hPa 0,0 l/m 0,0 km/h (0 Bft) NW 315 3,9 C 4,7 C 0,0 km/h (0 Bft)
31.10.2013 03:00 4,5 C 95 % 1025,4 hPa 0,0 l/m 0,0 km/h (0 Bft) N 360 3,8 C 4,7 C 0,0 km/h (0 Bft)
31.10.2013 03:05 4,5 C 95 % 1025,2 hPa 0,0 l/m 0,0 km/h (0 Bft) N 360 3,8 C 4,7 C 0,0 km/h (0 Bft)
31.10.2013 03:10 4,5 C 95 % 1025,2 hPa 0,0 l/m 0,2 km/h (0 Bft) NO 45 3,8 C 4,7 C 0,0 km/h (0 Bft)
31.10.2013 03:15 4,5 C 95 % 1025,2 hPa 0,0 l/m 0,2 km/h (0 Bft) NO 45 3,8 C 4,7 C 0,0 km/h (0 Bft)
31.10.2013 03:20 4,5 C 95 % 1025,2 hPa 0,0 l/m 0,0 km/h (0 Bft) N 360 3,8 C 4,7 C 0,0 km/h (0 Bft)
31.10.2013 03:25 4,6 C 95 % 1025,1 hPa 0,0 l/m 0,0 km/h (0 Bft) NW 315 3,9 C 4,7 C 0,0 km/h (0 Bft)
31.10.2013 03:30 4,5 C 95 % 1025,1 hPa 0,0 l/m 0,2 km/h (0 Bft) N 360 3,8 C 4,7 C 1,6 km/h (1 Bft)
31.10.2013 03:35 4,4 C 95 % 1025,1 hPa 0,0 l/m 0,3 km/h (0 Bft) N-NO 22 3,7 C 4,7 C 0,0 km/h (0 Bft)
31.10.2013 03:40 4,4 C 95 % 1025,1 hPa 0,0 l/m 0,3 km/h (0 Bft) NW 315 3,7 C 4,7 C 0,0 km/h (0 Bft)
31.10.2013 03:45 4,4 C 95 % 1025,0 hPa 0,0 l/m 0,3 km/h (0 Bft) NO 45 3,7 C 4,6 C 3,9 km/h (1 Bft)
31.10.2013 03:50 4,3 C 95 % 1025,0 hPa 0,0 l/m 0,8 km/h (0 Bft) NO 45 3,6 C 4,6 C 3,1 km/h (1 Bft)
31.10.2013 03:55 4,1 C 95 % 1025,0 hPa 0,0 l/m 2,1 km/h (1 Bft) O-NO 67 3,4 C 4,4 C 1,6 km/h (1 Bft)
31.10.2013 04:00 4,1 C 95 % 1025,0 hPa 0,0 l/m 1,9 km/h (1 Bft) O-NO 67 3,4 C 4,3 C 0,0 km/h (0 Bft)
31.10.2013 04:05 4,2 C 95 % 1024,8 hPa 0,0 l/m 0,8 km/h (0 Bft) N 360 3,5 C 4,2 C 0,0 km/h (0 Bft)
31.10.2013 04:10 4,2 C 95 % 1024,8 hPa 0,0 l/m 0,0 km/h (0 Bft) N 360 3,5 C 4,2 C 0,0 km/h (0 Bft)
31.10.2013 04:15 4,2 C 95 % 1024,8 hPa 0,0 l/m 0,2 km/h (0 Bft) SW 225 3,5 C 4,2 C 0,0 km/h (0 Bft)
31.10.2013 04:20 4,2 C 95 % 1024,8 hPa 0,0 l/m 0,2 km/h (0 Bft) W-SW 247 3,5 C 4,2 C 0,0 km/h (0 Bft)
31.10.2013 04:25 4,1 C 95 % 1024,8 hPa 0,0 l/m 0,2 km/h (0 Bft) W-SW 247 3,4 C 4,2 C 0,0 km/h (0 Bft)
31.10.2013 04:30 4,1 C 95 % 1024,8 hPa 0,0 l/m 1,3 km/h (1 Bft) S 180 3,4 C 4,1 C 0,0 km/h (0 Bft)
31.10.2013 04:35 4,0 C 95 % 1024,8 hPa 0,0 l/m 1,3 km/h (1 Bft) S-SW 202 3,3 C 4,1 C 0,0 km/h (0 Bft)
31.10.2013 04:40 3,9 C 95 % 1024,8 hPa 0,0 l/m 1,1 km/h (1 Bft) S-SO 157 3,2 C 4,0 C 2,7 km/h (1 Bft)
31.10.2013 04:44 3,8 C 95 % 1024,7 hPa 0,0 l/m 1,3 km/h (1 Bft) S-SO 157 3,1 C 4,0 C 1,9 km/h (1 Bft)
31.10.2013 04:45 3,8 C 95 % 1024,7 hPa 0,0 l/m 1,3 km/h (1 Bft) S-SO 157 3,1 C 4,0 C 1,9 km/h (1 Bft)
31.10.2013 04:50 3,7 C 95 % 1024,7 hPa 0,0 l/m 0,8 km/h (0 Bft) O-SO 112 3,0 C 3,9 C 0,0 km/h (0 Bft)
31.10.2013 04:55 3,7 C 95 % 1024,7 hPa 0,0 l/m 0,8 km/h (0 Bft) O-SO 112 3,0 C 3,8 C 2,3 km/h (1 Bft)
31.10.2013 05:00 3,7 C 95 % 1024,7 hPa 0,0 l/m 0,8 km/h (0 Bft) S 180 3,0 C 3,8 C 0,0 km/h (0 Bft)
31.10.2013 05:05 3,7 C 95 % 1024,7 hPa 0,0 l/m 0,8 km/h (0 Bft) SW 225 3,0 C 3,8 C 2,1 km/h (1 Bft)
31.10.2013 05:10 3,7 C 95 % 1024,7 hPa 0,0 l/m 0,6 km/h (0 Bft) S 180 3,0 C 3,7 C 0,0 km/h (0 Bft)
31.10.2013 05:15 3,6 C 95 % 1024,7 hPa 0,0 l/m 1,0 km/h (0 Bft) S-SW 202 2,9 C 3,7 C 1,6 km/h (1 Bft)
31.10.2013 05:20 3,5 C 95 % 1024,7 hPa 0,0 l/m 1,1 km/h (1 Bft) O 90 2,8 C 3,7 C 3,1 km/h (1 Bft)
31.10.2013 05:25 3,4 C 95 % 1024,5 hPa 0,0 l/m 1,0 km/h (0 Bft) S-SO 157 2,7 C 3,5 C 0,0 km/h (0 Bft)
31.10.2013 05:30 3,3 C 95 % 1024,5 hPa 0,0 l/m 1,3 km/h (1 Bft) S-SO 157 2,6 C 3,5 C 3,7 km/h (1 Bft)
31.10.2013 05:35 3,3 C 95 % 1024,5 hPa 0,0 l/m 2,6 km/h (1 Bft) SO 135 2,6 C 3,2 C 1,9 km/h (1 Bft)
31.10.2013 05:40 3,3 C 95 % 1024,5 hPa 0,0 l/m 1,9 km/h (1 Bft) O-SO 112 2,6 C 3,2 C 0,0 km/h (0 Bft)
31.10.2013 05:45 3,2 C 95 % 1024,4 hPa 0,0 l/m 0,5 km/h (0 Bft) S-SO 157 2,5 C 3,1 C 2,7 km/h (1 Bft)
31.10.2013 05:50 3,0 C 95 % 1024,4 hPa 0,0 l/m 0,8 km/h (0 Bft) O 90 2,3 C 3,1 C 3,5 km/h (1 Bft)
31.10.2013 05:55 3,0 C 95 % 1024,4 hPa 0,0 l/m 1,8 km/h (1 Bft) O 90 2,3 C 3,0 C 1,9 km/h (1 Bft)
31.10.2013 06:00 3,0 C 95 % 1024,4 hPa 0,0 l/m 1,8 km/h (1 Bft) O-SO 112 2,3 C 2,9 C 0,0 km/h (0 Bft)
31.10.2013 06:05 3,0 C 95 % 1024,3 hPa 0,0 l/m 1,0 km/h (0 Bft) O-NO 67 2,3 C 2,9 C 1,6 km/h (1 Bft)
31.10.2013 06:10 3,0 C 95 % 1024,3 hPa 0,0 l/m 2,3 km/h (1 Bft) O-SO 112 2,3 C 2,9 C 3,4 km/h (1 Bft)
31.10.2013 06:15 3,0 C 95 % 1024,3 hPa 0,0 l/m 2,9 km/h (1 Bft) NO 45 2,3 C 2,9 C 0,0 km/h (0 Bft)
31.10.2013 06:20 3,1 C 95 % 1024,3 hPa 0,0 l/m 2,9 km/h (1 Bft) NO 45 2,4 C 2,9 C 0,0 km/h (0 Bft)
31.10.2013 06:25 3,1 C 95 % 1024,4 hPa 0,0 l/m 2,3 km/h (1 Bft) SO 135 2,4 C 3,1 C 1,8 km/h (1 Bft)
31.10.2013 06:30 3,2 C 95 % 1024,4 hPa 0,0 l/m 2,3 km/h (1 Bft) SO 135 2,5 C 3,1 C 1,8 km/h (1 Bft)
31.10.2013 06:35 3,3 C 95 % 1024,4 hPa 0,0 l/m 2,3 km/h (1 Bft) SO 135 2,6 C 3,1 C 1,8 km/h (1 Bft)
31.10.2013 06:40 3,3 C 95 % 1024,4 hPa 0,0 l/m 2,3 km/h (1 Bft) SO 135 2,6 C 3,1 C 1,8 km/h (1 Bft)
31.10.2013 06:45 3,3 C 95 % 1024,2 hPa 0,0 l/m 0,0 km/h (0 Bft) SO 135 2,6 C 3,1 C 0,0 km/h (0 Bft)
31.10.2013 06:50 3,3 C 95 % 1024,2 hPa 0,0 l/m 0,0 km/h (0 Bft) SO 135 2,6 C 3,1 C 0,0 km/h (0 Bft)
31.10.2013 06:55 3,3 C 95 % 1024,2 hPa 0,0 l/m 0,0 km/h (0 Bft) SO 135 2,6 C 3,1 C 0,0 km/h (0 Bft)
31.10.2013 07:00 3,3 C 95 % 1024,2 hPa 0,0 l/m 0,0 km/h (0 Bft) SO 135 2,6 C 3,1 C 0,0 km/h (0 Bft)
31.10.2013 07:05 3,2 C 95 % 1024,4 hPa 0,0 l/m 0,0 km/h (0 Bft) SO 135 2,5 C 3,1 C 0,0 km/h (0 Bft)
31.10.2013 07:10 3,3 C 95 % 1024,4 hPa 0,0 l/m 0,0 km/h (0 Bft) SO 135 2,6 C 3,1 C 0,0 km/h (0 Bft)
31.10.2013 07:15 3,3 C 95 % 1024,4 hPa 0,0 l/m 0,0 km/h (0 Bft) SO 135 2,6 C 3,1 C 0,0 km/h (0 Bft)
31.10.2013 07:20 3,3 C 95 % 1024,4 hPa 0,0 l/m 0,0 km/h (0 Bft) SO 135 2,6 C 3,1 C 0,0 km/h (0 Bft)
31.10.2013 07:25 3,2 C 95 % 1024,5 hPa 0,0 l/m 0,0 km/h (0 Bft) SO 135 2,5 C 3,1 C 0,0 km/h (0 Bft)
31.10.2013 07:30 3,2 C 95 % 1024,5 hPa 0,0 l/m 0,0 km/h (0 Bft) SO 135 2,5 C 3,1 C 0,0 km/h (0 Bft)
31.10.2013 07:35 3,3 C 95 % 1024,5 hPa 0,0 l/m 0,0 km/h (0 Bft) SO 135 2,6 C 3,1 C 0,0 km/h (0 Bft)
31.10.2013 07:40 3,3 C 95 % 1024,5 hPa 0,0 l/m 0,0 km/h (0 Bft) SO 135 2,6 C 3,1 C 0,0 km/h (0 Bft)
31.10.2013 07:45 3,3 C 95 % 1024,6 hPa 0,0 l/m 0,0 km/h (0 Bft) SO 135 2,6 C 3,1 C 0,0 km/h (0 Bft)
31.10.2013 07:50 3,4 C 95 % 1024,6 hPa 0,0 l/m 0,0 km/h (0 Bft) SO 135 2,7 C 3,1 C 0,0 km/h (0 Bft)
31.10.2013 07:55 3,2 C 95 % 1024,6 hPa 0,0 l/m 0,0 km/h (0 Bft) SO 135 2,5 C 3,1 C 0,0 km/h (0 Bft)
31.10.2013 08:00 3,1 C 95 % 1024,6 hPa 0,0 l/m 0,0 km/h (0 Bft) SO 135 2,4 C 3,1 C 0,0 km/h (0 Bft)
31.10.2013 08:05 3,2 C 95 % 1024,6 hPa 0,0 l/m 0,0 km/h (0 Bft) SO 135 2,5 C 3,1 C 0,0 km/h (0 Bft)
31.10.2013 08:10 3,2 C 95 % 1024,6 hPa 0,0 l/m 0,0 km/h (0 Bft) SO 135 2,5 C 3,1 C 0,0 km/h (0 Bft)
31.10.2013 08:15 3,1 C 94 % 1024,6 hPa 0,0 l/m 0,0 km/h (0 Bft) SO 135 2,2 C 3,1 C 0,0 km/h (0 Bft)
31.10.2013 08:20 3,2 C 94 % 1024,6 hPa 0,0 l/m 0,0 km/h (0 Bft) SO 135 2,3 C 3,1 C 0,0 km/h (0 Bft)
31.10.2013 08:25 3,1 C 94 % 1024,6 hPa 0,0 l/m 0,0 km/h (0 Bft) SO 135 2,2 C 3,1 C 0,0 km/h (0 Bft)
31.10.2013 08:30 3,2 C 94 % 1024,6 hPa 0,0 l/m 0,0 km/h (0 Bft) SO 135 2,3 C 3,1 C 0,0 km/h (0 Bft)
31.10.2013 08:35 3,4 C 94 % 1024,6 hPa 0,0 l/m 0,0 km/h (0 Bft) SO 135 2,5 C 3,1 C 0,0 km/h (0 Bft)
31.10.2013 08:40 3,6 C 94 % 1024,6 hPa 0,0 l/m 0,0 km/h (0 Bft) SO 135 2,7 C 3,1 C 0,0 km/h (0 Bft)
31.10.2013 08:45 3,8 C 94 % 1024,6 hPa 0,0 l/m 0,0 km/h (0 Bft) SO 135 2,9 C 3,1 C 0,0 km/h (0 Bft)
31.10.2013 08:50 4,0 C 94 % 1024,6 hPa 0,0 l/m 0,0 km/h (0 Bft) SO 135 3,1 C 3,1 C 0,0 km/h (0 Bft)
31.10.2013 08:55 4,2 C 94 % 1024,6 hPa 0,0 l/m 0,0 km/h (0 Bft) SO 135 3,3 C 3,1 C 0,0 km/h (0 Bft)
31.10.2013 09:00 4,3 C 93 % 1024,6 hPa 0,0 l/m 0,0 km/h (0 Bft) SO 135 3,3 C 3,1 C 0,0 km/h (0 Bft)
31.10.2013 09:05 3,9 C 93 % 1024,8 hPa 0,0 l/m 0,0 km/h (0 Bft) SO 135 2,9 C 3,1 C 0,0 km/h (0 Bft)
31.10.2013 09:10 4,3 C 93 % 1024,8 hPa 0,0 l/m 0,0 km/h (0 Bft) SO 135 3,3 C 3,1 C 0,0 km/h (0 Bft)
31.10.2013 09:15 4,4 C 92 % 1024,8 hPa 0,0 l/m 0,0 km/h (0 Bft) SO 135 3,2 C 3,1 C 0,0 km/h (0 Bft)
31.10.2013 09:20 4,6 C 92 % 1024,8 hPa 0,0 l/m 1,1 km/h (1 Bft) SW 225 3,4 C 5,0 C 0,0 km/h (0 Bft)
31.10.2013 09:25 4,8 C 92 % 1024,6 hPa 0,0 l/m 0,6 km/h (0 Bft) O-NO 67 3,6 C 5,2 C 3,2 km/h (1 Bft)
31.10.2013 09:30 4,7 C 92 % 1024,6 hPa 0,0 l/m 1,0 km/h (0 Bft) W-SW 247 3,5 C 5,2 C 2,9 km/h (1 Bft)
31.10.2013 09:35 4,7 C 92 % 1024,6 hPa 0,0 l/m 1,6 km/h (1 Bft) W 270 3,5 C 5,2 C 0,0 km/h (0 Bft)
31.10.2013 09:40 4,7 C 92 % 1024,6 hPa 0,0 l/m 0,8 km/h (0 Bft) W-NW 292 3,5 C 5,3 C 0,0 km/h (0 Bft)
31.10.2013 09:44 5,0 C 91 % 1024,6 hPa 0,0 l/m 0,0 km/h (0 Bft) N-NW 337 3,7 C 5,5 C 0,0 km/h (0 Bft)
31.10.2013 09:45 5,0 C 91 % 1024,6 hPa 0,0 l/m 0,0 km/h (0 Bft) N-NW 337 3,7 C 5,5 C 0,0 km/h (0 Bft)
31.10.2013 09:50 4,9 C 91 % 1024,6 hPa 0,0 l/m 0,5 km/h (0 Bft) N-NW 337 3,6 C 5,6 C 3,4 km/h (1 Bft)
31.10.2013 09:55 4,9 C 91 % 1024,6 hPa 0,0 l/m 1,3 km/h (1 Bft) N 360 3,6 C 5,6 C 2,6 km/h (1 Bft)
31.10.2013 10:00 4,9 C 91 % 1024,6 hPa 0,0 l/m 1,6 km/h (1 Bft) N 360 3,6 C 5,6 C 0,0 km/h (0 Bft)
31.10.2013 10:05 5,0 C 90 % 1024,8 hPa 0,0 l/m 1,9 km/h (1 Bft) N 360 3,5 C 5,7 C 1,6 km/h (1 Bft)
31.10.2013 10:10 4,8 C 90 % 1024,8 hPa 0,0 l/m 2,3 km/h (1 Bft) NW 315 3,3 C 5,7 C 0,0 km/h (0 Bft)
31.10.2013 10:15 5,0 C 90 % 1024,8 hPa 0,0 l/m 2,3 km/h (1 Bft) W-SW 247 3,5 C 5,7 C 2,9 km/h (1 Bft)
31.10.2013 10:20 5,1 C 90 % 1024,8 hPa 0,0 l/m 2,3 km/h (1 Bft) W-NW 292 3,6 C 5,8 C 3,9 km/h (1 Bft)
31.10.2013 10:25 5,4 C 90 % 1024,8 hPa 0,0 l/m 2,4 km/h (1 Bft) W-SW 247 3,9 C 5,9 C 3,1 km/h (1 Bft)
31.10.2013 10:30 5,2 C 89 % 1024,8 hPa 0,0 l/m 1,9 km/h (1 Bft) N-NW 337 3,5 C 6,0 C 3,4 km/h (1 Bft)
31.10.2013 10:35 5,4 C 89 % 1024,8 hPa 0,0 l/m 2,1 km/h (1 Bft) N 360 3,7 C 6,0 C 0,0 km/h (0 Bft)
31.10.2013 10:40 5,6 C 89 % 1024,8 hPa 0,0 l/m 1,9 km/h (1 Bft) W-NW 292 3,9 C 6,1 C 3,1 km/h (1 Bft)
31.10.2013 10:45 5,7 C 89 % 1024,9 hPa 0,0 l/m 1,1 km/h (1 Bft) W-SW 247 4,0 C 6,3 C 2,6 km/h (1 Bft)
31.10.2013 10:50 5,8 C 89 % 1024,9 hPa 0,0 l/m 1,4 km/h (1 Bft) N 360 4,1 C 6,4 C 2,7 km/h (1 Bft)
31.10.2013 10:55 5,7 C 89 % 1024,9 hPa 0,0 l/m 1,6 km/h (1 Bft) W-SW 247 4,0 C 6,4 C 1,8 km/h (1 Bft)
31.10.2013 11:00 5,7 C 89 % 1024,9 hPa 0,0 l/m 1,1 km/h (1 Bft) N-NW 337 4,0 C 6,5 C 1,6 km/h (1 Bft)
31.10.2013 11:05 5,7 C 88 % 1024,8 hPa 0,0 l/m 1,1 km/h (1 Bft) NO 45 3,9 C 6,8 C 0,0 km/h (0 Bft)
31.10.2013 11:10 5,8 C 88 % 1024,8 hPa 0,0 l/m 1,0 km/h (0 Bft) N 360 4,0 C 6,8 C 1,8 km/h (1 Bft)
31.10.2013 11:15 6,0 C 87 % 1024,8 hPa 0,0 l/m 0,3 km/h (0 Bft) W-SW 247 4,0 C 7,1 C 0,0 km/h (0 Bft)
31.10.2013 11:20 6,2 C 87 % 1024,8 hPa 0,0 l/m 0,2 km/h (0 Bft) O-SO 112 4,2 C 7,4 C 0,0 km/h (0 Bft)
31.10.2013 11:25 6,4 C 87 % 1024,7 hPa 0,0 l/m 0,3 km/h (0 Bft) W 270 4,4 C 7,7 C 0,0 km/h (0 Bft)
31.10.2013 11:30 6,4 C 86 % 1024,7 hPa 0,0 l/m 0,3 km/h (0 Bft) S-SW 202 4,2 C 7,8 C 0,0 km/h (0 Bft)
31.10.2013 11:35 6,5 C 86 % 1024,7 hPa 0,0 l/m 0,5 km/h (0 Bft) O-SO 112 4,3 C 8,0 C 1,6 km/h (1 Bft)
31.10.2013 11:40 6,6 C 86 % 1024,7 hPa 0,0 l/m 0,5 km/h (0 Bft) SO 135 4,4 C 8,1 C 0,0 km/h (0 Bft)
31.10.2013 11:45 6,5 C 84 % 1024,8 hPa 0,0 l/m 0,5 km/h (0 Bft) NO 45 4,0 C 8,3 C 0,0 km/h (0 Bft)
31.10.2013 11:50 6,8 C 85 % 1024,8 hPa 0,0 l/m 0,8 km/h (0 Bft) W-SW 247 4,5 C 8,3 C 3,9 km/h (1 Bft)
31.10.2013 11:55 6,9 C 84 % 1024,8 hPa 0,0 l/m 1,8 km/h (1 Bft) W-SW 247 4,4 C 8,2 C 3,2 km/h (1 Bft)
31.10.2013 12:00 7,0 C 84 % 1024,8 hPa 0,0 l/m 2,4 km/h (1 Bft) W 270 4,5 C 8,2 C 2,7 km/h (1 Bft)
31.10.2013 12:05 7,1 C 83 % 1024,7 hPa 0,0 l/m 2,1 km/h (1 Bft) W-SW 247 4,4 C 8,2 C 2,6 km/h (1 Bft)
31.10.2013 12:10 7,3 C 83 % 1024,7 hPa 0,0 l/m 2,1 km/h (1 Bft) W-NW 292 4,6 C 8,3 C 6,1 km/h (2 Bft)
31.10.2013 12:15 6,7 C 82 % 1024,7 hPa 0,0 l/m 2,4 km/h (1 Bft) W 270 3,8 C 8,0 C 2,1 km/h (1 Bft)
31.10.2013 12:20 7,0 C 82 % 1024,7 hPa 0,0 l/m 2,3 km/h (1 Bft) N 360 4,1 C 8,0 C 0,0 km/h (0 Bft)
31.10.2013 12:25 7,0 C 82 % 1024,4 hPa 0,0 l/m 0,3 km/h (0 Bft) NO 45 4,1 C 8,5 C 0,0 km/h (0 Bft)
31.10.2013 12:30 7,2 C 82 % 1024,4 hPa 0,0 l/m 0,2 km/h (0 Bft) NO 45 4,3 C 8,8 C 0,0 km/h (0 Bft)
31.10.2013 12:35 6,9 C 80 % 1024,4 hPa 0,0 l/m 0,5 km/h (0 Bft) NO 45 3,7 C 9,1 C 1,6 km/h (1 Bft)
31.10.2013 12:40 7,6 C 82 % 1024,4 hPa 0,0 l/m 0,5 km/h (0 Bft) N-NW 337 4,7 C 9,2 C 0,0 km/h (0 Bft)
31.10.2013 12:45 7,6 C 81 % 1024,5 hPa 0,0 l/m 0,5 km/h (0 Bft) N-NW 337 4,6 C 9,4 C 0,0 km/h (0 Bft)
31.10.2013 12:50 7,6 C 80 % 1024,5 hPa 0,0 l/m 0,3 km/h (0 Bft) N-NW 337 4,4 C 9,4 C 2,6 km/h (1 Bft)
31.10.2013 12:55 7,2 C 79 % 1024,5 hPa 0,0 l/m 0,6 km/h (0 Bft) N-NW 337 3,8 C 9,5 C 2,4 km/h (1 Bft)
31.10.2013 13:00 7,2 C 79 % 1024,5 hPa 0,0 l/m 1,0 km/h (0 Bft) W-NW 292 3,8 C 9,5 C 0,0 km/h (0 Bft)
31.10.2013 13:05 7,1 C 79 % 1024,5 hPa 0,0 l/m 1,6 km/h (1 Bft) N 360 3,7 C 9,2 C 2,3 km/h (1 Bft)
31.10.2013 13:10 7,3 C 79 % 1024,5 hPa 0,0 l/m 1,4 km/h (1 Bft) N 360 3,9 C 9,2 C 0,0 km/h (0 Bft)
31.10.2013 13:15 7,6 C 79 % 1024,5 hPa 0,0 l/m 1,1 km/h (1 Bft) W 270 4,2 C 9,3 C 2,9 km/h (1 Bft)
31.10.2013 13:20 7,9 C 80 % 1024,5 hPa 0,0 l/m 0,8 km/h (0 Bft) NW 315 4,7 C 9,2 C 0,0 km/h (0 Bft)
31.10.2013 13:25 7,7 C 79 % 1024,4 hPa 0,0 l/m 1,0 km/h (0 Bft) W-NW 292 4,3 C 9,5 C 1,9 km/h (1 Bft)
31.10.2013 13:30 7,7 C 79 % 1024,4 hPa 0,0 l/m 1,4 km/h (1 Bft) W-NW 292 4,3 C 9,4 C 0,0 km/h (0 Bft)
31.10.2013 13:35 8,4 C 79 % 1024,4 hPa 0,0 l/m 1,1 km/h (1 Bft) W-NW 292 5,0 C 9,6 C 0,0 km/h (0 Bft)
31.10.2013 13:40 7,8 C 79 % 1024,4 hPa 0,0 l/m 0,5 km/h (0 Bft) N 360 4,4 C 9,7 C 0,0 km/h (0 Bft)
31.10.2013 13:45 8,3 C 79 % 1024,3 hPa 0,0 l/m 1,1 km/h (1 Bft) S-SW 202 4,9 C 9,7 C 3,7 km/h (1 Bft)
31.10.2013 13:50 8,3 C 79 % 1024,3 hPa 0,0 l/m 1,1 km/h (1 Bft) W 270 4,9 C 9,6 C 0,0 km/h (0 Bft)
31.10.2013 13:55 7,8 C 79 % 1024,3 hPa 0,0 l/m 2,7 km/h (1 Bft) N 360 4,4 C 9,2 C 3,7 km/h (1 Bft)
31.10.2013 14:00 7,6 C 79 % 1024,3 hPa 0,0 l/m 3,1 km/h (1 Bft) W 270 4,2 C 8,9 C 7,6 km/h (2 Bft)
31.10.2013 14:05 7,7 C 80 % 1024,0 hPa 0,0 l/m 2,1 km/h (1 Bft) W-SW 247 4,5 C 8,8 C 5,5 km/h (1 Bft)
31.10.2013 14:10 7,6 C 80 % 1024,0 hPa 0,0 l/m 1,9 km/h (1 Bft) N-NW 337 4,4 C 8,7 C 3,1 km/h (1 Bft)
31.10.2013 14:15 7,7 C 80 % 1024,0 hPa 0,0 l/m 1,9 km/h (1 Bft) W 270 4,5 C 8,6 C 1,6 km/h (1 Bft)
31.10.2013 14:20 7,9 C 81 % 1024,0 hPa 0,0 l/m 2,1 km/h (1 Bft) W-NW 292 4,8 C 8,7 C 3,7 km/h (1 Bft)
31.10.2013 14:25 7,8 C 81 % 1024,0 hPa 0,0 l/m 3,1 km/h (1 Bft) W 270 4,7 C 8,5 C 4,5 km/h (1 Bft)
31.10.2013 14:30 7,7 C 81 % 1024,0 hPa 0,0 l/m 3,4 km/h (1 Bft) W 270 4,7 C 8,4 C 2,6 km/h (1 Bft)
31.10.2013 14:35 7,8 C 81 % 1024,0 hPa 0,0 l/m 2,6 km/h (1 Bft) W-SW 247 4,7 C 8,4 C 3,1 km/h (1 Bft)
31.10.2013 14:40 7,6 C 81 % 1024,0 hPa 0,0 l/m 2,6 km/h (1 Bft) W 270 4,6 C 8,3 C 2,1 km/h (1 Bft)
31.10.2013 14:44 7,4 C 81 % 1024,1 hPa 0,0 l/m 2,7 km/h (1 Bft) W 270 4,4 C 8,3 C 2,3 km/h (1 Bft)
31.10.2013 14:45 7,4 C 81 % 1024,1 hPa 0,0 l/m 2,7 km/h (1 Bft) W 270 4,4 C 8,3 C 2,3 km/h (1 Bft)
31.10.2013 14:50 7,6 C 81 % 1024,1 hPa 0,0 l/m 2,3 km/h (1 Bft) W-NW 292 4,6 C 8,3 C 2,3 km/h (1 Bft)
31.10.2013 14:55 7,5 C 81 % 1024,1 hPa 0,0 l/m 1,8 km/h (1 Bft) W 270 4,5 C 8,2 C 0,0 km/h (0 Bft)
31.10.2013 15:00 7,4 C 81 % 1024,1 hPa 0,0 l/m 1,6 km/h (1 Bft) W 270 4,4 C 8,2 C 3,2 km/h (1 Bft)
31.10.2013 15:05 7,3 C 82 % 1023,9 hPa 0,0 l/m 1,8 km/h (1 Bft) W-NW 292 4,4 C 8,0 C 3,4 km/h (1 Bft)
31.10.2013 15:10 7,1 C 82 % 1023,9 hPa 0,0 l/m 2,7 km/h (1 Bft) W-NW 292 4,2 C 7,9 C 3,5 km/h (1 Bft)
31.10.2013 15:15 7,1 C 83 % 1023,9 hPa 0,0 l/m 3,2 km/h (1 Bft) NW 315 4,4 C 7,7 C 4,2 km/h (1 Bft)
31.10.2013 15:20 7,0 C 83 % 1023,9 hPa 0,0 l/m 2,9 km/h (1 Bft) W-NW 292 4,3 C 7,6 C 2,6 km/h (1 Bft)
31.10.2013 15:25 6,8 C 84 % 1023,9 hPa 0,0 l/m 3,4 km/h (1 Bft) W-NW 292 4,3 C 7,4 C 4,2 km/h (1 Bft)
31.10.2013 15:30 6,7 C 84 % 1023,9 hPa 0,0 l/m 3,1 km/h (1 Bft) N 360 4,2 C 7,4 C 2,7 km/h (1 Bft)
31.10.2013 15:35 6,6 C 85 % 1023,9 hPa 0,0 l/m 2,6 km/h (1 Bft) N-NW 337 4,3 C 7,3 C 3,2 km/h (1 Bft)
31.10.2013 15:40 6,5 C 85 % 1023,9 hPa 0,0 l/m 2,4 km/h (1 Bft) NW 315 4,2 C 7,2 C 2,1 km/h (1 Bft)
31.10.2013 15:45 6,5 C 86 % 1023,9 hPa 0,0 l/m 2,4 km/h (1 Bft) N-NO 22 4,3 C 7,1 C 0,0 km/h (0 Bft)
31.10.2013 15:50 6,4 C 86 % 1023,9 hPa 0,0 l/m 2,3 km/h (1 Bft) NW 315 4,2 C 7,1 C 2,7 km/h (1 Bft)
31.10.2013 15:55 6,4 C 86 % 1023,9 hPa 0,0 l/m 1,0 km/h (0 Bft) NW 315 4,2 C 7,0 C 1,8 km/h (1 Bft)
31.10.2013 16:00 6,4 C 87 % 1023,9 hPa 0,0 l/m 0,8 km/h (0 Bft) N-NW 337 4,4 C 7,0 C 0,0 km/h (0 Bft)
31.10.2013 16:05 6,3 C 87 % 1023,8 hPa 0,0 l/m 0,6 km/h (0 Bft) W-NW 292 4,3 C 6,9 C 0,0 km/h (0 Bft)
31.10.2013 16:10 6,3 C 87 % 1023,8 hPa 0,0 l/m 0,8 km/h (0 Bft) NW 315 4,3 C 6,9 C 2,9 km/h (1 Bft)
31.10.2013 16:15 6,3 C 87 % 1023,8 hPa 0,0 l/m 0,8 km/h (0 Bft) W-NW 292 4,3 C 6,8 C 0,0 km/h (0 Bft)
31.10.2013 16:20 6,4 C 88 % 1023,8 hPa 0,0 l/m 0,8 km/h (0 Bft) W-NW 292 4,6 C 6,8 C 2,1 km/h (1 Bft)
31.10.2013 16:25 6,4 C 88 % 1023,7 hPa 0,0 l/m 0,5 km/h (0 Bft) W 270 4,6 C 6,8 C 0,0 km/h (0 Bft)
31.10.2013 16:30 6,4 C 88 % 1023,7 hPa 0,0 l/m 0,3 km/h (0 Bft) W-NW 292 4,6 C 6,8 C 0,0 km/h (0 Bft)
31.10.2013 16:35 6,2 C 88 % 1023,7 hPa 0,0 l/m 0,3 km/h (0 Bft) N 360 4,4 C 6,8 C 1,8 km/h (1 Bft)
31.10.2013 16:40 6,2 C 88 % 1023,7 hPa 0,0 l/m 0,5 km/h (0 Bft) W-NW 292 4,4 C 6,7 C 0,0 km/h (0 Bft)
31.10.2013 16:45 6,2 C 88 % 1023,7 hPa 0,0 l/m 0,6 km/h (0 Bft) N-NO 22 4,4 C 6,6 C 0,0 km/h (0 Bft)
31.10.2013 16:50 6,1 C 89 % 1023,7 hPa 0,0 l/m 0,3 km/h (0 Bft) N-NO 22 4,4 C 6,6 C 0,0 km/h (0 Bft)
31.10.2013 16:55 6,1 C 89 % 1023,7 hPa 0,0 l/m 0,0 km/h (0 Bft) N-NW 337 4,4 C 6,5 C 0,0 km/h (0 Bft)
31.10.2013 17:00 6,1 C 89 % 1023,7 hPa 0,0 l/m 0,2 km/h (0 Bft) N 360 4,4 C 6,5 C 0,0 km/h (0 Bft)
31.10.2013 17:05 6,1 C 89 % 1023,5 hPa 0,0 l/m 0,2 km/h (0 Bft) N 360 4,4 C 6,4 C 0,0 km/h (0 Bft)
31.10.2013 17:10 6,0 C 89 % 1023,5 hPa 0,0 l/m 0,0 km/h (0 Bft) N-NW 337 4,3 C 6,4 C 0,0 km/h (0 Bft)
31.10.2013 17:15 6,1 C 89 % 1023,5 hPa 0,0 l/m 0,0 km/h (0 Bft) N-NO 22 4,4 C 6,5 C 0,0 km/h (0 Bft)
31.10.2013 17:20 6,1 C 89 % 1023,5 hPa 0,0 l/m 0,0 km/h (0 Bft) NO 45 4,4 C 6,4 C 0,0 km/h (0 Bft)
31.10.2013 17:25 6,1 C 89 % 1023,5 hPa 0,0 l/m 0,0 km/h (0 Bft) NO 45 4,4 C 6,4 C 0,0 km/h (0 Bft)
31.10.2013 17:30 6,1 C 89 % 1023,5 hPa 0,0 l/m 0,0 km/h (0 Bft) NW 315 4,4 C 6,4 C 0,0 km/h (0 Bft)
31.10.2013 17:35 6,1 C 89 % 1023,5 hPa 0,0 l/m 0,0 km/h (0 Bft) N-NW 337 4,4 C 6,4 C 0,0 km/h (0 Bft)
31.10.2013 17:40 6,1 C 90 % 1023,5 hPa 0,0 l/m 0,0 km/h (0 Bft) NO 45 4,6 C 6,4 C 0,0 km/h (0 Bft)
31.10.2013 17:45 6,1 C 90 % 1023,5 hPa 0,0 l/m 0,0 km/h (0 Bft) NO 45 4,6 C 6,4 C 0,0 km/h (0 Bft)
31.10.2013 17:50 6,1 C 90 % 1023,5 hPa 0,0 l/m 0,0 km/h (0 Bft) NO 45 4,6 C 6,4 C 0,0 km/h (0 Bft)
31.10.2013 17:55 6,1 C 90 % 1023,5 hPa 0,0 l/m 0,0 km/h (0 Bft) N-NW 337 4,6 C 6,4 C 0,0 km/h (0 Bft)
31.10.2013 18:00 6,1 C 90 % 1023,5 hPa 0,0 l/m 0,0 km/h (0 Bft) N-NW 337 4,6 C 6,4 C 0,0 km/h (0 Bft)
31.10.2013 18:05 6,1 C 90 % 1023,8 hPa 0,0 l/m 1,1 km/h (1 Bft) W-SW 247 4,6 C 6,3 C 2,6 km/h (1 Bft)
31.10.2013 18:10 6,1 C 90 % 1023,8 hPa 0,0 l/m 1,4 km/h (1 Bft) S 180 4,6 C 6,3 C 3,4 km/h (1 Bft)
31.10.2013 18:15 6,1 C 90 % 1023,8 hPa 0,0 l/m 1,4 km/h (1 Bft) SO 135 4,6 C 6,3 C 2,1 km/h (1 Bft)
31.10.2013 18:20 6,1 C 90 % 1023,8 hPa 0,0 l/m 1,1 km/h (1 Bft) SO 135 4,6 C 6,2 C 0,0 km/h (0 Bft)
31.10.2013 18:25 6,0 C 90 % 1023,7 hPa 0,0 l/m 0,8 km/h (0 Bft) SO 135 4,5 C 6,2 C 2,1 km/h (1 Bft)
31.10.2013 18:30 6,0 C 90 % 1023,7 hPa 0,0 l/m 1,1 km/h (1 Bft) SO 135 4,5 C 6,2 C 0,0 km/h (0 Bft)
31.10.2013 18:35 6,0 C 90 % 1023,7 hPa 0,0 l/m 0,6 km/h (0 Bft) S-SW 202 4,5 C 6,2 C 0,0 km/h (0 Bft)
31.10.2013 18:40 6,1 C 90 % 1023,7 hPa 0,0 l/m 0,2 km/h (0 Bft) S 180 4,6 C 6,2 C 1,8 km/h (1 Bft)
31.10.2013 18:45 6,1 C 90 % 1023,8 hPa 0,0 l/m 0,5 km/h (0 Bft) S-SW 202 4,6 C 6,2 C 0,0 km/h (0 Bft)
31.10.2013 18:50 6,1 C 90 % 1023,8 hPa 0,0 l/m 0,6 km/h (0 Bft) SW 225 4,6 C 6,2 C 0,0 km/h (0 Bft)
31.10.2013 18:55 6,1 C 90 % 1023,8 hPa 0,0 l/m 0,3 km/h (0 Bft) SW 225 4,6 C 6,2 C 0,0 km/h (0 Bft)
31.10.2013 19:00 6,1 C 90 % 1023,8 hPa 0,0 l/m 0,0 km/h (0 Bft) S-SW 202 4,6 C 6,2 C 0,0 km/h (0 Bft)
31.10.2013 19:05 6,1 C 90 % 1023,6 hPa 0,0 l/m 0,0 km/h (0 Bft) W-SW 247 4,6 C 6,2 C 0,0 km/h (0 Bft)
31.10.2013 19:10 6,0 C 90 % 1023,6 hPa 0,0 l/m 0,0 km/h (0 Bft) S 180 4,5 C 6,2 C 0,0 km/h (0 Bft)
31.10.2013 19:15 6,0 C 90 % 1023,6 hPa 0,0 l/m 0,0 km/h (0 Bft) S 180 4,5 C 6,2 C 0,0 km/h (0 Bft)
31.10.2013 19:20 6,0 C 90 % 1023,6 hPa 0,0 l/m 0,0 km/h (0 Bft) W-SW 247 4,5 C 6,1 C 0,0 km/h (0 Bft)
31.10.2013 19:25 5,9 C 91 % 1023,7 hPa 0,0 l/m 0,0 km/h (0 Bft) S 180 4,5 C 6,0 C 0,0 km/h (0 Bft)
31.10.2013 19:30 5,8 C 91 % 1023,7 hPa 0,0 l/m 0,0 km/h (0 Bft) S 180 4,4 C 5,9 C 0,0 km/h (0 Bft)
31.10.2013 19:35 5,7 C 91 % 1023,7 hPa 0,0 l/m 0,0 km/h (0 Bft) W-SW 247 4,3 C 5,9 C 0,0 km/h (0 Bft)
31.10.2013 19:40 5,7 C 91 % 1023,7 hPa 0,0 l/m 0,0 km/h (0 Bft) W-SW 247 4,3 C 5,8 C 0,0 km/h (0 Bft)
31.10.2013 19:44 5,6 C 91 % 1023,5 hPa 0,0 l/m 0,0 km/h (0 Bft) S-SO 157 4,2 C 5,7 C 0,0 km/h (0 Bft)
31.10.2013 19:45 5,6 C 91 % 1023,5 hPa 0,0 l/m 0,0 km/h (0 Bft) S-SO 157 4,2 C 5,7 C 0,0 km/h (0 Bft)
31.10.2013 19:50 5,5 C 91 % 1023,5 hPa 0,0 l/m 0,0 km/h (0 Bft) S-SO 157 4,2 C 5,6 C 0,0 km/h (0 Bft)
31.10.2013 19:55 5,4 C 91 % 1023,5 hPa 0,0 l/m 0,0 km/h (0 Bft) S-SO 157 4,1 C 5,6 C 0,0 km/h (0 Bft)
31.10.2013 20:00 5,2 C 91 % 1023,5 hPa 0,0 l/m 0,0 km/h (0 Bft) S 180 3,9 C 5,5 C 0,0 km/h (0 Bft)
31.10.2013 20:05 5,1 C 91 % 1023,2 hPa 0,0 l/m 0,0 km/h (0 Bft) W-SW 247 3,8 C 5,3 C 0,0 km/h (0 Bft)
31.10.2013 20:10 4,9 C 92 % 1023,2 hPa 0,0 l/m 0,0 km/h (0 Bft) SO 135 3,7 C 5,2 C 0,0 km/h (0 Bft)
31.10.2013 20:15 4,6 C 91 % 1023,2 hPa 0,0 l/m 0,0 km/h (0 Bft) S 180 3,3 C 4,7 C 0,0 km/h (0 Bft)
31.10.2013 20:20 4,7 C 92 % 1023,2 hPa 0,0 l/m 0,3 km/h (0 Bft) S-SW 202 3,5 C 4,8 C 1,8 km/h (1 Bft)
31.10.2013 20:25 5,0 C 92 % 1023,5 hPa 0,0 l/m 1,1 km/h (1 Bft) S 180 3,8 C 5,1 C 3,9 km/h (1 Bft)
31.10.2013 20:30 5,1 C 92 % 1023,5 hPa 0,0 l/m 1,8 km/h (1 Bft) SO 135 3,9 C 5,3 C 0,0 km/h (0 Bft)
31.10.2013 20:35 5,1 C 92 % 1023,5 hPa 0,0 l/m 1,6 km/h (1 Bft) W-SW 247 3,9 C 5,3 C 2,1 km/h (1 Bft)
31.10.2013 20:40 5,1 C 92 % 1023,5 hPa 0,0 l/m 1,1 km/h (1 Bft) S-SW 202 3,9 C 5,3 C 2,6 km/h (1 Bft)
31.10.2013 20:45 5,0 C 92 % 1023,9 hPa 0,0 l/m 1,6 km/h (1 Bft) S-SO 157 3,8 C 5,3 C 4,3 km/h (1 Bft)
31.10.2013 20:50 5,0 C 92 % 1023,9 hPa 0,0 l/m 2,3 km/h (1 Bft) S-SO 157 3,8 C 5,3 C 1,8 km/h (1 Bft)
31.10.2013 20:55 5,1 C 92 % 1023,9 hPa 0,0 l/m 2,3 km/h (1 Bft) SO 135 3,9 C 5,3 C 0,0 km/h (0 Bft)
31.10.2013 21:00 5,2 C 93 % 1023,9 hPa 0,0 l/m 1,4 km/h (1 Bft) S-SO 157 4,2 C 5,3 C 0,0 km/h (0 Bft)
31.10.2013 21:05 5,4 C 93 % 1024,0 hPa 0,0 l/m 2,1 km/h (1 Bft) S-SO 157 4,4 C 5,5 C 9,3 km/h (2 Bft)
31.10.2013 21:10 5,4 C 93 % 1024,0 hPa 0,0 l/m 3,1 km/h (1 Bft) S 180 4,4 C 5,6 C 4,0 km/h (1 Bft)
31.10.2013 21:15 5,5 C 93 % 1024,0 hPa 0,0 l/m 2,3 km/h (1 Bft) O-SO 112 4,5 C 5,7 C 0,0 km/h (0 Bft)
31.10.2013 21:20 5,6 C 93 % 1024,0 hPa 0,0 l/m 1,1 km/h (1 Bft) O-SO 112 4,6 C 5,8 C 0,0 km/h (0 Bft)
31.10.2013 21:25 5,6 C 93 % 1023,8 hPa 0,0 l/m 0,0 km/h (0 Bft) S-SW 202 4,6 C 5,9 C 0,0 km/h (0 Bft)
31.10.2013 21:30 5,7 C 93 % 1023,8 hPa 0,0 l/m 0,3 km/h (0 Bft) S-SW 202 4,7 C 5,9 C 0,0 km/h (0 Bft)
31.10.2013 21:35 5,7 C 93 % 1023,8 hPa 0,0 l/m 0,8 km/h (0 Bft) S 180 4,7 C 5,9 C 0,0 km/h (0 Bft)
31.10.2013 21:40 5,7 C 93 % 1023,8 hPa 0,0 l/m 0,5 km/h (0 Bft) S-SO 157 4,7 C 5,9 C 0,0 km/h (0 Bft)
31.10.2013 21:45 5,6 C 93 % 1023,7 hPa 0,0 l/m 0,0 km/h (0 Bft) S-SW 202 4,6 C 5,9 C 0,0 km/h (0 Bft)
31.10.2013 21:50 5,6 C 93 % 1023,7 hPa 0,0 l/m 0,0 km/h (0 Bft) S-SO 157 4,6 C 5,8 C 0,0 km/h (0 Bft)
31.10.2013 21:55 5,4 C 93 % 1023,7 hPa 0,0 l/m 0,0 km/h (0 Bft) W-NW 292 4,4 C 5,6 C 0,0 km/h (0 Bft)
31.10.2013 22:00 5,3 C 93 % 1023,7 hPa 0,0 l/m 0,0 km/h (0 Bft) W-NW 292 4,3 C 5,6 C 0,0 km/h (0 Bft)
31.10.2013 22:05 5,3 C 93 % 1023,8 hPa 0,0 l/m 0,0 km/h (0 Bft) N-NO 22 4,3 C 5,5 C 0,0 km/h (0 Bft)
31.10.2013 22:10 5,2 C 93 % 1023,8 hPa 0,0 l/m 0,2 km/h (0 Bft) N 360 4,2 C 5,4 C 0,0 km/h (0 Bft)
31.10.2013 22:15 5,2 C 93 % 1023,8 hPa 0,0 l/m 0,5 km/h (0 Bft) NO 45 4,2 C 5,3 C 1,9 km/h (1 Bft)
31.10.2013 22:20 5,0 C 93 % 1023,8 hPa 0,0 l/m 0,5 km/h (0 Bft) NO 45 4,0 C 5,3 C 0,0 km/h (0 Bft)
31.10.2013 22:25 4,6 C 93 % 1023,7 hPa 0,0 l/m 0,3 km/h (0 Bft) O-NO 67 3,6 C 4,9 C 0,0 km/h (0 Bft)
31.10.2013 22:30 4,5 C 93 % 1023,7 hPa 0,0 l/m 0,0 km/h (0 Bft) O-NO 67 3,5 C 4,7 C 0,0 km/h (0 Bft)
31.10.2013 22:35 4,5 C 93 % 1023,7 hPa 0,0 l/m 0,0 km/h (0 Bft) NO 45 3,5 C 4,5 C 0,0 km/h (0 Bft)
31.10.2013 22:40 4,7 C 93 % 1023,7 hPa 0,0 l/m 0,3 km/h (0 Bft) W-SW 247 3,7 C 4,7 C 2,3 km/h (1 Bft)
31.10.2013 22:45 4,9 C 93 % 1023,8 hPa 0,0 l/m 0,3 km/h (0 Bft) S-SW 202 3,9 C 4,9 C 0,0 km/h (0 Bft)
31.10.2013 22:50 5,0 C 93 % 1023,8 hPa 0,0 l/m 1,0 km/h (0 Bft) S-SW 202 4,0 C 5,1 C 3,5 km/h (1 Bft)
31.10.2013 22:55 5,2 C 93 % 1023,8 hPa 0,0 l/m 2,4 km/h (1 Bft) S 180 4,2 C 5,3 C 1,9 km/h (1 Bft)
31.10.2013 23:00 5,2 C 93 % 1023,8 hPa 0,0 l/m 1,9 km/h (1 Bft) S 180 4,2 C 5,4 C 3,2 km/h (1 Bft)
31.10.2013 23:05 5,3 C 93 % 1024,1 hPa 0,0 l/m 1,1 km/h (1 Bft) O 90 4,3 C 5,5 C 0,0 km/h (0 Bft)
31.10.2013 23:10 5,3 C 94 % 1024,1 hPa 0,0 l/m 0,8 km/h (0 Bft) O 90 4,4 C 5,5 C 0,0 km/h (0 Bft)
31.10.2013 23:15 5,4 C 94 % 1024,1 hPa 0,0 l/m 0,3 km/h (0 Bft) O-NO 67 4,5 C 5,6 C 3,2 km/h (1 Bft)
31.10.2013 23:20 5,4 C 94 % 1024,1 hPa 0,0 l/m 0,5 km/h (0 Bft) O-SO 112 4,5 C 5,6 C 1,8 km/h (1 Bft)
31.10.2013 23:25 5,4 C 94 % 1024,1 hPa 0,0 l/m 1,6 km/h (1 Bft) S 180 4,5 C 5,6 C 1,6 km/h (1 Bft)
31.10.2013 23:30 5,3 C 94 % 1024,1 hPa 0,0 l/m 2,4 km/h (1 Bft) S-SW 202 4,4 C 5,6 C 2,6 km/h (1 Bft)
31.10.2013 23:35 5,3 C 94 % 1024,1 hPa 0,0 l/m 3,1 km/h (1 Bft) O-SO 112 4,4 C 5,6 C 3,5 km/h (1 Bft)
31.10.2013 23:40 5,3 C 94 % 1024,1 hPa 0,0 l/m 2,6 km/h (1 Bft) O-SO 112 4,4 C 5,5 C 1,6 km/h (1 Bft)
31.10.2013 23:45 5,3 C 94 % 1024,1 hPa 0,0 l/m 1,1 km/h (1 Bft) S 180 4,4 C 5,5 C 2,9 km/h (1 Bft)
31.10.2013 23:50 5,2 C 94 % 1024,1 hPa 0,0 l/m 1,0 km/h (0 Bft) O 90 4,3 C 5,5 C 1,8 km/h (1 Bft)
31.10.2013 23:55 5,2 C 94 % 1024,1 hPa 0,0 l/m 1,0 km/h (0 Bft) S-SW 202 4,3 C 5,4 C 0,0 km/h (0 Bft)
_ Min-Zeit 06:15 14:00 20:20 - 22:35 - - 08:25 06:20 23:55
Minimum _ 3,0 C 79 % 1023,2 hPa - 0,0 km/h (0 Bft) - - 2,2 C 2,9 C 0,0 km/h (0 Bft)
_ Max-Zeit 13:35 02:45 00:40 23:55 00:25 - - 13:35 13:45 21:05
Maximum _ 8,4 C 96 % 1026,1 hPa 0,0 l/m 3,5 km/h
NW (1 Bft)
- - 5,0 C 9,7 C 9,3 km/h
S-SO (2 Bft)
Durchschnitt _ 5,3 C 91 % 1024,4 hPa #0,0 l/m 1,0 km/h (0 Bft) W-NW - 3,9 C 5,6 C 1,2 km/h (1 Bft)